Regional Weather Roundup
Issued by NWS

Home | Current Version | Previous Version | Graphics & Text | Print | Product List | Glossary On
Versions: 1 2 3 4 5 6 7 8 9 10 11 12 13 14 15 16 17 18 19 20 21 22 23 24 25 26 27 28 29 30 31 32 33 34 35 36 37 38 39 40 41 42 43 44 45 46 47 48
000
ASUS45 KBOU 052207
RWRCO

WEATHER ROUNDUP FOR COLORADO
NATIONAL WEATHER SERVICE DENVER/BOULDER CO
300 PM MST THU MAR 05 2015

NOTE: "FAIR" INDICATES FEW OR NO CLOUDS BELOW 12000 FEET WITH NO
SIGNIFICANT WEATHER AND/OR OBSTRUCTIONS TO VISIBILITY.

COZ001>005-013-030-031-052300-
...NORTHWEST COLORADO...

CITY           SKY/WX    TMP DP  RH WIND       PRES   REMARKS
CRAIG          MOSUNNY   34  15  46 E7        30.34  WCI  28
HAYDEN         MOSUNNY   34  10  37 CALM      30.33S
MEEKER         SUNNY     41  19  41 VRB6      30.31F
MOUNT WERNER   NOT AVBL
STEAMBOAT SPGS MOSUNNY   32   8  36 CALM      30.33S
WALDEN         MOSUNNY   30  10  43 S15       30.25S WCI  19
$$

COZ006>008-011-052300-
...WEST CENTRAL VALLEYS...

CITY           SKY/WX    TMP DP  RH WIND       PRES   REMARKS
GRAND JUNCTION SUNNY     42  14  32 CALM      30.36F
MONTROSE       SUNNY     41  15  35 SW3       30.36F
EAGLE          MOSUNNY   39  12  33 SW12G21   30.32F
RIFLE          SUNNY     42  13  30 MISG      30.35F
DELTA          SUNNY     46  13  26 CALM      30.36F
NUCLA          SUNNY     43  12  28 CALM      30.38F
$$

COZ017>023-064>068-052300-
...SOUTHWEST COLORADO...

CITY           SKY/WX    TMP DP  RH WIND       PRES   REMARKS
DURANGO        SUNNY     39  13  34 VRB5      30.31F
CORTEZ         SUNNY     45  20  36 W8        30.34F
PAGOSA SPRINGS SUNNY     40   1  19 S6        30.32S
TELLURIDE      SUNNY     34  -5  18 W12       30.34S WCI  25
WOLF CREEK PAS NOT AVBL
$$

COZ009-010-012-014-032>034-037-058>063-052300-
...CENTRAL COLORADO...

CITY           SKY/WX    TMP DP  RH WIND       PRES   REMARKS
ASPEN          SUNNY     34   8  33 NW9       30.30S WCI  27
BUENA VISTA    MOSUNNY   39   9  28 NW10      30.20F
COPPER MTN     MOSUNNY   23   5  46 W21G28    30.25R WCI   8
BERTHOUD PASS  NOT AVBL
COTTONWOOD PAS MOSUNNY   36  -8  15 W20G30    30.22S
GUNNISON       SUNNY     19   5  53 E7        30.37F WCI  10
KREMMLING      MOSUNNY   30  12  47 CALM      30.32S
LEADVILLE      MOSUNNY   25   5  42 NW16G25   30.25R WCI  12
SALIDA         MOSUNNY   43   7  23 SW16G22   30.29S
SUNLIGHT       SUNNY     25  16  68 CALM        N/A
WILKERSON PASS PTSUNNY   27   0  31 SW3       30.24R
$$

COZ069>075-052300-
...SAN LUIS VALLEY/SANGRE DE CRISTO MOUNTAINS...

CITY           SKY/WX    TMP DP  RH WIND       PRES   REMARKS
ALAMOSA        SUNNY     37   0  21 CALM      30.29S
LA VETA PASS   SUNNY     32   3  29 S15G25    30.22R WCI  22
SAGUACHE       MOSUNNY   32  10  40 S7        30.29S WCI  26
$$

COZ035-036-038>040-052300-
...NORTHERN COLORADO FRONT RANGE...

CITY           SKY/WX    TMP DP  RH WIND       PRES   REMARKS
DENVER INTL AP PTSUNNY   35  23  61 N6        30.19R WCI  30
DMNS CITY PARK   N/A     34  17  50 NE6       30.20R WCI  29
AURORA         PTSUNNY   38  22  53 NE8       30.18S
FRONT RANGE AP PTSUNNY   34  27  75 N7        30.19S WCI  28
ERIE MUNI ARPT PTSUNNY   29  11  46 NW5       30.22R WCI  24
BOULDER MUN AP PTSUNNY   30  10  43 CALM      30.21R
CENTENNIAL     PTSUNNY   44   6  21 CALM      30.17R
BROOMFIELD     PTSUNNY   28  12  50 N9        30.19R WCI  20
FORT COLLINS   MOSUNNY   32  16  51 CALM      30.22S
LONGMONT       MOSUNNY   43  12  28 CALM      30.23S
$$

COZ041-046-047-076>085-087-088-052300-
...PIKES PEAK/PALMER DIVIDE AND SOUTHERN FOOTHILLS...

CITY           SKY/WX    TMP DP  RH WIND       PRES   REMARKS
COLO. SPRINGS  PTSUNNY   32  22  66 SW6       30.20S WCI  26
A. F. ACADEMY  CLOUDY    38   3  23 S6        30.17S
ELLICOTT       NOT AVBL
FALCON         PTSUNNY   37   7  27 CALM      30.19S
FORT CARSON    DRIZZLE   32  19  58 SE2       30.19S
LIMON          MOSUNNY   30  20  66 SE8       30.21S WCI  22
MONUMENT HILL  PTSUNNY   36  12  38 CALM      30.16S
TRINIDAD       MOSUNNY   45  21  38 VRB5      30.19S
$$

COZ042>045-048>051-090-091-052300-
...NORTHEAST COLORADO...

CITY           SKY/WX    TMP DP  RH WIND       PRES   REMARKS
GREELEY ARPT   MOSUNNY   39  19  45 SW3       30.20S
AKRON          CLOUDY    44   5  20 CALM      30.20S
BURLINGTON     MOSUNNY   43  13  29 SW16      30.23F
WRAY           CLOUDY    48  10  21 NW16      30.21S
STERLING       PTSUNNY   45  14  29 CALM      30.19S
HOLYOKE        NOT AVBL
FORT MORGAN    PTSUNNY   44   2  17 SE6       30.21S
$$

COZ086-089-092>099-052300-
...SOUTHEAST COLORADO...

CITY           SKY/WX    TMP DP  RH WIND       PRES   REMARKS
PUEBLO         MOSUNNY   43  20  39 E8        30.19F
LA JUNTA       MOSUNNY   47  16  29 SE5       30.22F
LAMAR          MOSUNNY   49   7  18 S10       30.24S
SPRINGFIELD      N/A     45  11  25 S15       30.24F
$$



USA.gov is the U.S. government's official web portal to all federal, state and local government web resources and services.